Year,Month,Day,Hour,Minute,Value (Times are PST for temperature in C)
2015,06,15,00,00,17.40
2015,06,15,00,01,17.40
2015,06,15,00,02,17.40
2015,06,15,00,03,17.40
2015,06,15,00,04,17.40
2015,06,15,00,05,17.40
2015,06,15,00,06,17.40
2015,06,15,00,07,17.50
2015,06,15,00,08,17.60
2015,06,15,00,09,17.60
2015,06,15,00,10,17.60
2015,06,15,00,11,17.60
2015,06,15,00,12,17.60
2015,06,15,00,13,17.60
2015,06,15,00,14,17.60
2015,06,15,00,15,17.60
2015,06,15,00,16,17.60
2015,06,15,00,17,17.60
2015,06,15,00,18,17.60
2015,06,15,00,19,17.60
2015,06,15,00,20,17.60
2015,06,15,00,21,17.60
2015,06,15,00,22,17.60
2015,06,15,00,23,17.60
2015,06,15,00,24,17.50
2015,06,15,00,25,17.50
2015,06,15,00,26,17.50
2015,06,15,00,27,17.50
2015,06,15,00,28,17.40
2015,06,15,00,29,17.40
2015,06,15,00,30,17.40
2015,06,15,00,31,17.30
2015,06,15,00,32,17.30
2015,06,15,00,33,17.30
2015,06,15,00,34,17.20
2015,06,15,00,35,17.20
2015,06,15,00,36,17.20
2015,06,15,00,37,17.10
2015,06,15,00,38,17.10
2015,06,15,00,39,17.00
2015,06,15,00,40,17.00
2015,06,15,00,41,16.90
2015,06,15,00,42,16.90
2015,06,15,00,43,16.90
2015,06,15,00,44,16.90
2015,06,15,00,45,16.90
2015,06,15,00,46,16.90
2015,06,15,00,47,16.90
2015,06,15,00,48,16.90
2015,06,15,00,49,17.00
2015,06,15,00,50,17.00
2015,06,15,00,51,17.10
2015,06,15,00,52,17.10
2015,06,15,00,53,17.20
2015,06,15,00,54,17.20
2015,06,15,00,55,17.30
2015,06,15,00,56,17.30
2015,06,15,00,57,17.30
2015,06,15,00,58,17.40
2015,06,15,00,59,17.40
2015,06,15,01,00,17.40
2015,06,15,01,01,17.40
2015,06,15,01,02,17.40
2015,06,15,01,03,17.40
2015,06,15,01,04,17.40
2015,06,15,01,05,17.40
2015,06,15,01,06,17.40
2015,06,15,01,07,17.40
2015,06,15,01,08,17.40
2015,06,15,01,09,17.40
2015,06,15,01,10,17.40
2015,06,15,01,11,17.40
2015,06,15,01,12,17.40
2015,06,15,01,13,17.40
2015,06,15,01,14,17.30
2015,06,15,01,15,17.30
2015,06,15,01,16,17.30
2015,06,15,01,17,17.40
2015,06,15,01,18,17.40
2015,06,15,01,19,17.50
2015,06,15,01,20,17.50
2015,06,15,01,21,17.60
2015,06,15,01,22,17.70
2015,06,15,01,23,17.70
2015,06,15,01,24,17.80
2015,06,15,01,25,17.80
2015,06,15,01,26,17.90
2015,06,15,01,27,17.90
2015,06,15,01,28,18.00
2015,06,15,01,29,18.00
2015,06,15,01,30,18.10
2015,06,15,01,31,18.10
2015,06,15,01,32,18.10
2015,06,15,01,33,18.10
2015,06,15,01,34,18.20
2015,06,15,01,35,18.20
2015,06,15,01,36,18.20
2015,06,15,01,37,18.20
2015,06,15,01,38,18.20
2015,06,15,01,39,18.20
2015,06,15,01,40,18.10
2015,06,15,01,41,18.10
2015,06,15,01,42,18.10
2015,06,15,01,43,18.10
2015,06,15,01,44,18.10
2015,06,15,01,45,18.00
2015,06,15,01,46,18.00
2015,06,15,01,47,17.90
2015,06,15,01,48,17.90
2015,06,15,01,49,17.90
2015,06,15,01,50,17.80
2015,06,15,01,51,17.80
2015,06,15,01,52,17.80
2015,06,15,01,53,17.80
2015,06,15,01,54,17.70
2015,06,15,01,55,17.70
2015,06,15,01,56,17.70
2015,06,15,01,57,17.70
2015,06,15,01,58,17.70
2015,06,15,01,59,17.70
2015,06,15,02,00,17.70
2015,06,15,02,01,17.70
2015,06,15,02,02,17.70
2015,06,15,02,03,17.70
2015,06,15,02,04,17.70
2015,06,15,02,05,17.70
2015,06,15,02,06,17.70
2015,06,15,02,07,17.60
2015,06,15,02,08,17.60
2015,06,15,02,09,17.60
2015,06,15,02,10,17.60
2015,06,15,02,11,17.60
2015,06,15,02,12,17.60
2015,06,15,02,13,17.60
2015,06,15,02,14,17.60
2015,06,15,02,15,17.60
2015,06,15,02,16,17.50
2015,06,15,02,17,17.50
2015,06,15,02,18,17.50
2015,06,15,02,19,17.50
2015,06,15,02,20,17.40
2015,06,15,02,21,17.40
2015,06,15,02,22,17.40
2015,06,15,02,23,17.40
2015,06,15,02,24,17.40
2015,06,15,02,25,17.40
2015,06,15,02,26,17.40
2015,06,15,02,27,17.40
2015,06,15,02,28,17.40
2015,06,15,02,29,17.40
2015,06,15,02,30,17.40
2015,06,15,02,31,17.40
2015,06,15,02,32,17.40
2015,06,15,02,33,17.40
2015,06,15,02,34,17.40
2015,06,15,02,35,17.40
2015,06,15,02,36,17.40
2015,06,15,02,37,17.40
2015,06,15,02,38,17.40
2015,06,15,02,39,17.40
2015,06,15,02,40,17.40
2015,06,15,02,41,17.40
2015,06,15,02,42,17.30
2015,06,15,02,43,17.30
2015,06,15,02,44,17.30
2015,06,15,02,45,17.30
2015,06,15,02,46,17.30
2015,06,15,02,47,17.30
2015,06,15,02,48,17.30
2015,06,15,02,49,17.30
2015,06,15,02,50,17.30
2015,06,15,02,51,17.30
2015,06,15,02,52,17.20
2015,06,15,02,53,17.20
2015,06,15,02,54,17.20
2015,06,15,02,55,17.20
2015,06,15,02,56,17.20
2015,06,15,02,57,17.10
2015,06,15,02,58,17.10
2015,06,15,02,59,17.10
2015,06,15,03,00,17.10
2015,06,15,03,01,17.10
2015,06,15,03,02,17.10
2015,06,15,03,03,17.10
2015,06,15,03,04,17.10
2015,06,15,03,05,17.10
2015,06,15,03,06,17.10
2015,06,15,03,07,17.10
2015,06,15,03,08,17.10
2015,06,15,03,09,17.10
2015,06,15,03,10,17.10
2015,06,15,03,11,17.10
2015,06,15,03,12,17.10
2015,06,15,03,13,17.10
2015,06,15,03,14,17.10
2015,06,15,03,15,17.10
2015,06,15,03,16,17.10
2015,06,15,03,17,17.10
2015,06,15,03,18,17.10
2015,06,15,03,19,17.10
2015,06,15,03,20,17.10
2015,06,15,03,21,17.10
2015,06,15,03,22,17.10
2015,06,15,03,23,17.10
2015,06,15,03,24,17.10
2015,06,15,03,25,17.00
2015,06,15,03,26,17.00
2015,06,15,03,27,16.90
2015,06,15,03,28,16.90
2015,06,15,03,29,16.90
2015,06,15,03,30,16.90
2015,06,15,03,31,16.80
2015,06,15,03,32,16.80
2015,06,15,03,33,16.80
2015,06,15,03,34,16.80
2015,06,15,03,35,16.80
2015,06,15,03,36,16.80
2015,06,15,03,37,16.70
2015,06,15,03,38,16.70
2015,06,15,03,39,16.70
2015,06,15,03,40,16.70
2015,06,15,03,41,16.70
2015,06,15,03,42,16.70
2015,06,15,03,43,16.70
2015,06,15,03,44,16.70
2015,06,15,03,45,16.60
2015,06,15,03,46,16.60
2015,06,15,03,47,16.60
2015,06,15,03,48,16.60
2015,06,15,03,49,16.60
2015,06,15,03,50,16.60
2015,06,15,03,51,16.60
2015,06,15,03,52,16.60
2015,06,15,03,53,16.60
2015,06,15,03,54,16.60
2015,06,15,03,55,16.60
2015,06,15,03,56,16.50
2015,06,15,03,57,16.50
2015,06,15,03,58,16.50
2015,06,15,03,59,16.50
2015,06,15,04,00,16.50
2015,06,15,04,01,16.50
2015,06,15,04,02,16.40
2015,06,15,04,03,16.40
2015,06,15,04,04,16.40
2015,06,15,04,05,16.40
2015,06,15,04,06,16.40
2015,06,15,04,07,16.40
2015,06,15,04,08,16.30
2015,06,15,04,09,16.30
2015,06,15,04,10,16.30
2015,06,15,04,11,16.30
2015,06,15,04,12,16.30
2015,06,15,04,13,16.30
2015,06,15,04,14,16.30
2015,06,15,04,15,16.30
2015,06,15,04,16,16.30
2015,06,15,04,17,16.30
2015,06,15,04,18,16.30
2015,06,15,04,19,16.30
2015,06,15,04,20,16.40
2015,06,15,04,21,16.40
2015,06,15,04,22,16.40
2015,06,15,04,23,16.40
2015,06,15,04,24,16.40
2015,06,15,04,25,16.40
2015,06,15,04,26,16.40
2015,06,15,04,27,16.40
2015,06,15,04,28,16.40
2015,06,15,04,29,16.30
2015,06,15,04,30,16.30
2015,06,15,04,31,16.30
2015,06,15,04,32,16.30
2015,06,15,04,33,16.30
2015,06,15,04,34,16.30
2015,06,15,04,35,16.30
2015,06,15,04,36,16.30
2015,06,15,04,37,16.30
2015,06,15,04,38,16.40
2015,06,15,04,39,16.40
2015,06,15,04,40,16.40
2015,06,15,04,41,16.40
2015,06,15,04,42,16.30
2015,06,15,04,43,16.30
2015,06,15,04,44,16.30
2015,06,15,04,45,16.30
2015,06,15,04,46,16.30
2015,06,15,04,47,16.30
2015,06,15,04,48,16.30
2015,06,15,04,49,16.30
2015,06,15,04,50,16.30
2015,06,15,04,51,16.30
2015,06,15,04,52,16.30
2015,06,15,04,53,16.30
2015,06,15,04,54,16.30
2015,06,15,04,55,16.30
2015,06,15,04,56,16.30
2015,06,15,04,57,16.30
2015,06,15,04,58,16.20
2015,06,15,04,59,16.20
2015,06,15,05,00,16.20
2015,06,15,05,01,16.20
2015,06,15,05,02,16.10
2015,06,15,05,03,16.10
2015,06,15,05,04,16.10
2015,06,15,05,05,16.10
2015,06,15,05,06,16.10
2015,06,15,05,07,16.10
2015,06,15,05,08,16.00
2015,06,15,05,09,16.00
2015,06,15,05,10,16.00
2015,06,15,05,11,16.00
2015,06,15,05,12,16.00
2015,06,15,05,13,15.90
2015,06,15,05,14,15.90
2015,06,15,05,15,15.90
2015,06,15,05,16,15.90
2015,06,15,05,17,15.90
2015,06,15,05,18,15.80
2015,06,15,05,19,15.80
2015,06,15,05,20,15.80
2015,06,15,05,21,15.80
2015,06,15,05,22,15.80
2015,06,15,05,23,15.80
2015,06,15,05,24,15.80
2015,06,15,05,25,15.80
2015,06,15,05,26,15.80
2015,06,15,05,27,15.80
2015,06,15,05,28,15.80
2015,06,15,05,29,15.80
2015,06,15,05,30,15.80
2015,06,15,05,31,15.80
2015,06,15,05,32,15.80
2015,06,15,05,33,15.80
2015,06,15,05,34,15.80
2015,06,15,05,35,15.80
2015,06,15,05,36,15.80
2015,06,15,05,37,15.80
2015,06,15,05,38,15.80
2015,06,15,05,39,15.90
2015,06,15,05,40,15.90
2015,06,15,05,41,15.80
2015,06,15,05,42,15.80
2015,06,15,05,43,15.80
2015,06,15,05,44,15.80
2015,06,15,05,45,15.80
2015,06,15,05,46,15.80
2015,06,15,05,47,15.80
2015,06,15,05,48,15.80
2015,06,15,05,49,15.80
2015,06,15,05,50,15.80
2015,06,15,05,51,15.80
2015,06,15,05,52,15.80
2015,06,15,05,53,15.80
2015,06,15,05,54,15.90
2015,06,15,05,55,15.90
2015,06,15,05,56,15.90
2015,06,15,05,57,15.90
2015,06,15,05,58,16.00
2015,06,15,05,59,16.00
2015,06,15,06,00,16.00
2015,06,15,06,01,16.00
2015,06,15,06,02,16.10
2015,06,15,06,03,16.10
2015,06,15,06,04,16.10
2015,06,15,06,05,16.10
2015,06,15,06,06,16.10
2015,06,15,06,07,16.10
2015,06,15,06,08,16.20
2015,06,15,06,09,16.20
2015,06,15,06,10,16.20
2015,06,15,06,11,16.30
2015,06,15,06,12,16.30
2015,06,15,06,13,16.30
2015,06,15,06,14,16.30
2015,06,15,06,15,16.30
2015,06,15,06,16,16.40
2015,06,15,06,17,16.40
2015,06,15,06,18,16.40
2015,06,15,06,19,16.50
2015,06,15,06,20,16.50
2015,06,15,06,21,16.60
2015,06,15,06,22,16.60
2015,06,15,06,23,16.60
2015,06,15,06,24,16.70
2015,06,15,06,25,16.70
2015,06,15,06,26,16.70
2015,06,15,06,27,16.70
2015,06,15,06,28,16.70
2015,06,15,06,29,16.70
2015,06,15,06,30,16.70
2015,06,15,06,31,16.80
2015,06,15,06,32,16.80
2015,06,15,06,33,16.80
2015,06,15,06,34,16.80
2015,06,15,06,35,16.80
2015,06,15,06,36,16.80
2015,06,15,06,37,16.80
2015,06,15,06,38,16.90
2015,06,15,06,39,16.90
2015,06,15,06,40,16.90
2015,06,15,06,41,16.90
2015,06,15,06,42,16.90
2015,06,15,06,43,16.90
2015,06,15,06,44,17.00
2015,06,15,06,45,17.00
2015,06,15,06,46,17.00
2015,06,15,06,47,17.00
2015,06,15,06,48,17.00
2015,06,15,06,49,17.00
2015,06,15,06,50,17.00
2015,06,15,06,51,16.90
2015,06,15,06,52,16.90
2015,06,15,06,53,16.90
2015,06,15,06,54,16.90
2015,06,15,06,55,16.90
2015,06,15,06,56,16.90
2015,06,15,06,57,17.00
2015,06,15,06,58,17.00
2015,06,15,06,59,17.00
2015,06,15,07,00,17.00
2015,06,15,07,01,17.00
2015,06,15,07,02,17.00
2015,06,15,07,03,17.00
2015,06,15,07,04,17.00
2015,06,15,07,05,17.00
2015,06,15,07,06,17.00
2015,06,15,07,07,17.00
2015,06,15,07,08,17.00
2015,06,15,07,09,17.00
2015,06,15,07,10,17.00
2015,06,15,07,11,17.00
2015,06,15,07,12,17.00
2015,06,15,07,13,17.00
2015,06,15,07,14,17.00
2015,06,15,07,15,17.00
2015,06,15,07,16,17.00
2015,06,15,07,17,17.00
2015,06,15,07,18,17.00
2015,06,15,07,19,17.10
2015,06,15,07,20,17.10
2015,06,15,07,21,17.10
2015,06,15,07,22,17.10
2015,06,15,07,23,17.10
2015,06,15,07,24,17.10
2015,06,15,07,25,17.10
2015,06,15,07,26,17.10
2015,06,15,07,27,17.10
2015,06,15,07,28,17.10
2015,06,15,07,29,17.20
2015,06,15,07,30,17.20
2015,06,15,07,31,17.20
2015,06,15,07,32,17.30
2015,06,15,07,33,17.30
2015,06,15,07,34,17.40
2015,06,15,07,35,17.50
2015,06,15,07,36,17.60
2015,06,15,07,37,17.70
2015,06,15,07,38,17.70
2015,06,15,07,39,17.80
2015,06,15,07,40,17.80
2015,06,15,07,41,17.90
2015,06,15,07,42,18.00
2015,06,15,07,43,18.00
2015,06,15,07,44,18.10
2015,06,15,07,45,18.10
2015,06,15,07,46,18.20
2015,06,15,07,47,18.20
2015,06,15,07,48,18.20
2015,06,15,07,49,18.30
2015,06,15,07,50,18.30
2015,06,15,07,51,18.30
2015,06,15,07,52,18.40
2015,06,15,07,53,18.40
2015,06,15,07,54,18.40
2015,06,15,07,55,18.40
2015,06,15,07,56,18.40
2015,06,15,07,57,18.40
2015,06,15,07,58,18.40
2015,06,15,07,59,18.40
2015,06,15,08,00,18.50
2015,06,15,08,01,18.50
2015,06,15,08,02,18.50
2015,06,15,08,03,18.60
2015,06,15,08,04,18.60
2015,06,15,08,05,18.60
2015,06,15,08,06,18.70
2015,06,15,08,07,18.70
2015,06,15,08,08,18.70
2015,06,15,08,09,18.70
2015,06,15,08,10,18.80
2015,06,15,08,11,18.80
2015,06,15,08,12,18.70
2015,06,15,08,13,18.70
2015,06,15,08,14,18.70
2015,06,15,08,15,18.60
2015,06,15,08,16,18.60
2015,06,15,08,17,18.50
2015,06,15,08,18,18.50
2015,06,15,08,19,18.50
2015,06,15,08,20,18.50
2015,06,15,08,21,18.50
2015,06,15,08,22,18.50
2015,06,15,08,23,18.50
2015,06,15,08,24,18.50
2015,06,15,08,25,18.50
2015,06,15,08,26,18.50
2015,06,15,08,27,18.50
2015,06,15,08,28,18.60
2015,06,15,08,29,18.60
2015,06,15,08,30,18.60
2015,06,15,08,31,18.60
2015,06,15,08,32,18.60
2015,06,15,08,33,18.60
2015,06,15,08,34,18.60
2015,06,15,08,35,18.60
2015,06,15,08,36,18.70
2015,06,15,08,37,18.70
2015,06,15,08,38,18.80
2015,06,15,08,39,18.80
2015,06,15,08,40,18.80
2015,06,15,08,41,18.80
2015,06,15,08,42,18.90
2015,06,15,08,43,18.90
2015,06,15,08,44,18.90
2015,06,15,08,45,18.90
2015,06,15,08,46,18.90
2015,06,15,08,47,18.90
2015,06,15,08,48,18.90
2015,06,15,08,49,18.90
2015,06,15,08,50,18.80
2015,06,15,08,51,18.80
2015,06,15,08,52,18.80
2015,06,15,08,53,18.80
2015,06,15,08,54,18.80
2015,06,15,08,55,18.80
2015,06,15,08,56,18.80
2015,06,15,08,57,18.80
2015,06,15,08,58,18.80
2015,06,15,08,59,18.80
2015,06,15,09,00,18.80
2015,06,15,09,01,18.80
2015,06,15,09,02,18.60
2015,06,15,09,03,18.50
2015,06,15,09,04,18.40
2015,06,15,09,05,18.30
2015,06,15,09,06,18.30
2015,06,15,09,07,18.20
2015,06,15,09,08,18.20
2015,06,15,09,09,18.20
2015,06,15,09,10,18.20
2015,06,15,09,11,18.10
2015,06,15,09,12,18.20
2015,06,15,09,13,18.20
2015,06,15,09,14,18.20
2015,06,15,09,15,18.20
2015,06,15,09,16,18.30
2015,06,15,09,17,18.40
2015,06,15,09,18,18.50
2015,06,15,09,19,18.60
2015,06,15,09,20,18.70
2015,06,15,09,21,18.80
2015,06,15,09,22,18.80
2015,06,15,09,23,18.80
2015,06,15,09,24,18.70
2015,06,15,09,25,18.70
2015,06,15,09,26,18.60
2015,06,15,09,27,18.70
2015,06,15,09,28,18.70
2015,06,15,09,29,18.70
2015,06,15,09,30,18.70
2015,06,15,09,31,18.80
2015,06,15,09,32,18.80
2015,06,15,09,33,18.90
2015,06,15,09,34,18.90
2015,06,15,09,35,18.90
2015,06,15,09,36,18.90
2015,06,15,09,37,19.00
2015,06,15,09,38,19.00
2015,06,15,09,39,19.10
2015,06,15,09,40,19.10
2015,06,15,09,41,19.10
2015,06,15,09,42,19.10
2015,06,15,09,43,19.10
2015,06,15,09,44,19.10
2015,06,15,09,45,19.20
2015,06,15,09,46,19.20
2015,06,15,09,47,19.30
2015,06,15,09,48,19.30
2015,06,15,09,49,19.30
2015,06,15,09,50,19.40
2015,06,15,09,51,19.50
2015,06,15,09,52,19.60
2015,06,15,09,53,19.60
2015,06,15,09,54,19.70
2015,06,15,09,55,19.70
2015,06,15,09,56,19.80
2015,06,15,09,57,19.80
2015,06,15,09,58,19.80
2015,06,15,09,59,19.80
2015,06,15,10,00,19.80
2015,06,15,10,01,19.80
2015,06,15,10,02,19.80
2015,06,15,10,03,19.70
2015,06,15,10,04,19.60
2015,06,15,10,05,19.50
2015,06,15,10,06,19.50
2015,06,15,10,07,19.50
2015,06,15,10,08,19.50
2015,06,15,10,09,19.60
2015,06,15,10,10,19.60
2015,06,15,10,11,19.70
2015,06,15,10,12,19.80
2015,06,15,10,13,19.90
2015,06,15,10,14,19.90
2015,06,15,10,15,20.00
2015,06,15,10,16,20.00
2015,06,15,10,17,20.10
2015,06,15,10,18,20.10
2015,06,15,10,19,20.20
2015,06,15,10,20,20.20
2015,06,15,10,21,20.10
2015,06,15,10,22,20.10
2015,06,15,10,23,20.00
2015,06,15,10,24,19.90
2015,06,15,10,25,19.90
2015,06,15,10,26,19.90
2015,06,15,10,27,19.90
2015,06,15,10,28,20.00
2015,06,15,10,29,20.00
2015,06,15,10,30,20.10
2015,06,15,10,31,20.10
2015,06,15,10,32,20.20
2015,06,15,10,33,20.20
2015,06,15,10,34,20.30
2015,06,15,10,35,20.30
2015,06,15,10,36,20.40
2015,06,15,10,37,20.40
2015,06,15,10,38,20.50
2015,06,15,10,39,20.60
2015,06,15,10,40,20.60
2015,06,15,10,41,20.70
2015,06,15,10,42,20.70
2015,06,15,10,43,20.80
2015,06,15,10,44,20.80
2015,06,15,10,45,20.90
2015,06,15,10,46,21.00
2015,06,15,10,47,21.00
2015,06,15,10,48,21.00
2015,06,15,10,49,21.00
2015,06,15,10,50,20.90
2015,06,15,10,51,20.90
2015,06,15,10,52,20.90
2015,06,15,10,53,20.90
2015,06,15,10,54,21.00
2015,06,15,10,55,21.00
2015,06,15,10,56,21.10
2015,06,15,10,57,21.10
2015,06,15,10,58,21.10
2015,06,15,10,59,21.00
2015,06,15,11,00,21.00
2015,06,15,11,01,20.90
2015,06,15,11,02,20.90
2015,06,15,11,03,20.90
2015,06,15,11,04,20.90
2015,06,15,11,05,20.90
2015,06,15,11,06,20.90
2015,06,15,11,07,20.90
2015,06,15,11,08,21.00
2015,06,15,11,09,21.10
2015,06,15,11,10,21.10
2015,06,15,11,11,21.10
2015,06,15,11,12,21.20
2015,06,15,11,13,21.10
2015,06,15,11,14,21.10
2015,06,15,11,15,21.10
2015,06,15,11,16,21.10
2015,06,15,11,17,21.10
2015,06,15,11,18,21.20
2015,06,15,11,19,21.20
2015,06,15,11,20,21.20
2015,06,15,11,21,21.20
2015,06,15,11,22,21.20
2015,06,15,11,23,21.20
2015,06,15,11,24,21.20
2015,06,15,11,25,21.20
2015,06,15,11,26,21.20
2015,06,15,11,27,21.30
2015,06,15,11,28,21.40
2015,06,15,11,29,21.40
2015,06,15,11,30,21.50
2015,06,15,11,31,21.60
2015,06,15,11,32,21.70
2015,06,15,11,33,21.80
2015,06,15,11,34,21.80
2015,06,15,11,35,21.90
2015,06,15,11,36,21.90
2015,06,15,11,37,21.90
2015,06,15,11,38,22.00
2015,06,15,11,39,22.00
2015,06,15,11,40,22.10
2015,06,15,11,41,22.10
2015,06,15,11,42,22.10
2015,06,15,11,43,22.20
2015,06,15,11,44,22.20
2015,06,15,11,45,22.20
2015,06,15,11,46,22.30
2015,06,15,11,47,22.20
2015,06,15,11,48,22.20
2015,06,15,11,49,22.20
2015,06,15,11,50,22.20
2015,06,15,11,51,22.20
2015,06,15,11,52,22.10
2015,06,15,11,53,22.00
2015,06,15,11,54,22.00
2015,06,15,11,55,21.90
2015,06,15,11,56,21.90
2015,06,15,11,57,21.80
2015,06,15,11,58,21.80
2015,06,15,11,59,21.70
2015,06,15,12,00,21.70
2015,06,15,12,01,21.70
2015,06,15,12,02,21.70
2015,06,15,12,03,21.70
2015,06,15,12,04,21.70
2015,06,15,12,05,21.70
2015,06,15,12,06,21.60
2015,06,15,12,07,21.60
2015,06,15,12,08,21.60
2015,06,15,12,09,21.50
2015,06,15,12,10,21.50
2015,06,15,12,11,21.50
2015,06,15,12,12,21.40
2015,06,15,12,13,21.40
2015,06,15,12,14,21.40
2015,06,15,12,15,21.40
2015,06,15,12,16,21.40
2015,06,15,12,17,21.30
2015,06,15,12,18,21.30
2015,06,15,12,19,21.30
2015,06,15,12,20,21.30
2015,06,15,12,21,21.40
2015,06,15,12,22,21.40
2015,06,15,12,23,21.50
2015,06,15,12,24,21.50
2015,06,15,12,25,21.50
2015,06,15,12,26,21.60
2015,06,15,12,27,21.60
2015,06,15,12,28,21.60
2015,06,15,12,29,21.60
2015,06,15,12,30,21.60
2015,06,15,12,31,21.60
2015,06,15,12,32,21.60
2015,06,15,12,33,21.70
2015,06,15,12,34,21.70
2015,06,15,12,35,21.70
2015,06,15,12,36,21.70
2015,06,15,12,37,21.70
2015,06,15,12,38,21.70
2015,06,15,12,39,21.70
2015,06,15,12,40,21.60
2015,06,15,12,41,21.60
2015,06,15,12,42,21.60
2015,06,15,12,43,21.50
2015,06,15,12,44,21.50
2015,06,15,12,45,21.40
2015,06,15,12,46,21.40
2015,06,15,12,47,21.40
2015,06,15,12,48,21.40
2015,06,15,12,49,21.40
2015,06,15,12,50,21.40
2015,06,15,12,51,21.50
2015,06,15,12,52,21.60
2015,06,15,12,53,21.60
2015,06,15,12,54,21.70
2015,06,15,12,55,21.80
2015,06,15,12,56,21.80
2015,06,15,12,57,21.80
2015,06,15,12,58,21.90
2015,06,15,12,59,21.90
2015,06,15,13,00,21.90
2015,06,15,13,01,21.90
2015,06,15,13,02,22.00
2015,06,15,13,03,22.10
2015,06,15,13,04,22.10
2015,06,15,13,05,22.20
2015,06,15,13,06,22.20
2015,06,15,13,07,22.20
2015,06,15,13,08,22.20
2015,06,15,13,09,22.20
2015,06,15,13,10,22.10
2015,06,15,13,11,22.10
2015,06,15,13,12,22.20
2015,06,15,13,13,22.30
2015,06,15,13,14,22.30
2015,06,15,13,15,22.30
2015,06,15,13,16,22.30
2015,06,15,13,17,22.30
2015,06,15,13,18,22.20
2015,06,15,13,19,22.20
2015,06,15,13,20,22.20
2015,06,15,13,21,22.20
2015,06,15,13,22,22.30
2015,06,15,13,23,22.30
2015,06,15,13,24,22.40
2015,06,15,13,25,22.40
2015,06,15,13,26,22.50
2015,06,15,13,27,22.50
2015,06,15,13,28,22.60
2015,06,15,13,29,22.60
2015,06,15,13,30,22.60
2015,06,15,13,31,22.50
2015,06,15,13,32,22.60
2015,06,15,13,33,22.60
2015,06,15,13,34,22.60
2015,06,15,13,35,22.70
2015,06,15,13,36,22.70
2015,06,15,13,37,22.70
2015,06,15,13,38,22.80
2015,06,15,13,39,22.80
2015,06,15,13,40,22.80
2015,06,15,13,41,22.80
2015,06,15,13,42,22.90
2015,06,15,13,43,22.90
2015,06,15,13,44,22.90
2015,06,15,13,45,22.90
2015,06,15,13,46,22.90
2015,06,15,13,47,22.90
2015,06,15,13,48,22.90
2015,06,15,13,49,23.00
2015,06,15,13,50,23.00
2015,06,15,13,51,23.00
2015,06,15,13,52,23.00
2015,06,15,13,53,22.90
2015,06,15,13,54,22.90
2015,06,15,13,55,22.90
2015,06,15,13,56,22.80
2015,06,15,13,57,22.70
2015,06,15,13,58,22.70
2015,06,15,13,59,22.60
2015,06,15,14,00,22.60
2015,06,15,14,01,22.60
2015,06,15,14,02,22.70
2015,06,15,14,03,22.70
2015,06,15,14,04,22.80
2015,06,15,14,29,24.30
2015,06,15,14,30,24.30
2015,06,15,14,31,24.30
2015,06,15,14,32,24.30
2015,06,15,14,33,24.30
2015,06,15,14,34,24.20
2015,06,15,14,35,24.10
2015,06,15,14,36,24.10
2015,06,15,14,37,24.10
2015,06,15,14,38,24.10
2015,06,15,14,39,24.10
2015,06,15,14,40,24.00
2015,06,15,14,41,24.00
2015,06,15,14,42,23.90
2015,06,15,14,43,23.90
2015,06,15,14,44,23.80
2015,06,15,14,45,23.80
2015,06,15,14,46,23.80
2015,06,15,14,47,23.70
2015,06,15,14,48,23.60
2015,06,15,14,49,23.50
2015,06,15,14,50,23.40
2015,06,15,14,51,23.30
2015,06,15,14,52,23.20
2015,06,15,14,53,23.20
2015,06,15,14,54,23.20
2015,06,15,14,55,23.20
2015,06,15,14,56,23.20
2015,06,15,14,57,23.20
2015,06,15,14,58,23.20
2015,06,15,14,59,23.20
2015,06,15,15,00,23.20
2015,06,15,15,01,23.10
2015,06,15,15,02,23.10
2015,06,15,15,03,23.10
2015,06,15,15,04,23.10
2015,06,15,15,05,23.10
2015,06,15,15,06,23.10
2015,06,15,15,07,23.20
2015,06,15,15,08,23.30
2015,06,15,15,09,23.30
2015,06,15,15,10,23.40
2015,06,15,15,11,23.40
2015,06,15,15,12,23.40
2015,06,15,15,13,23.40
2015,06,15,15,14,23.40
2015,06,15,15,15,23.40
2015,06,15,15,16,23.30
2015,06,15,15,17,23.30
2015,06,15,15,18,23.20
2015,06,15,15,19,23.20
2015,06,15,15,20,23.20
2015,06,15,15,21,23.10
2015,06,15,15,22,23.10
2015,06,15,15,23,23.00
2015,06,15,15,24,23.00
2015,06,15,15,25,23.00
2015,06,15,15,26,23.00
2015,06,15,15,27,23.10
2015,06,15,15,28,23.10
2015,06,15,15,29,23.20
2015,06,15,15,30,23.20
2015,06,15,15,31,23.20
2015,06,15,15,32,23.30
2015,06,15,15,33,23.30
2015,06,15,15,34,23.40
2015,06,15,15,35,23.40
2015,06,15,15,36,23.50
2015,06,15,15,37,23.50
2015,06,15,15,38,23.60
2015,06,15,15,39,23.70
2015,06,15,15,40,23.70
2015,06,15,15,41,23.80
2015,06,15,15,42,23.80
2015,06,15,15,43,23.90
2015,06,15,15,44,24.00
2015,06,15,15,45,24.10
2015,06,15,15,46,24.10
2015,06,15,15,47,24.10
2015,06,15,15,48,24.20
2015,06,15,15,49,24.20
2015,06,15,15,50,24.20
2015,06,15,15,51,24.30
2015,06,15,15,52,24.30
2015,06,15,15,53,24.40
2015,06,15,15,54,24.40
2015,06,15,15,55,24.50
2015,06,15,15,56,24.50
2015,06,15,15,57,24.60
2015,06,15,15,58,24.70
2015,06,15,15,59,24.70
2015,06,15,16,00,24.80
2015,06,15,16,01,24.80
2015,06,15,16,02,24.80
2015,06,15,16,03,24.90
2015,06,15,16,04,24.80
2015,06,15,16,05,24.80
2015,06,15,16,06,24.70
2015,06,15,16,07,24.50
2015,06,15,16,08,24.40
2015,06,15,16,09,24.30
2015,06,15,16,10,24.20
2015,06,15,16,11,24.20
2015,06,15,16,12,24.10
2015,06,15,16,13,24.10
2015,06,15,16,14,24.10
2015,06,15,16,15,24.00
2015,06,15,16,16,23.90
2015,06,15,16,17,23.80
2015,06,15,16,18,23.70
2015,06,15,16,19,23.50
2015,06,15,16,20,23.50
2015,06,15,16,21,23.40
2015,06,15,16,22,23.40
2015,06,15,16,23,23.30
2015,06,15,16,24,23.30
2015,06,15,16,25,23.20
2015,06,15,16,26,23.20
2015,06,15,16,27,23.20
2015,06,15,16,28,23.20
2015,06,15,16,29,23.20
2015,06,15,16,30,23.10
2015,06,15,16,31,23.10
2015,06,15,16,32,23.00
2015,06,15,16,33,22.90
2015,06,15,16,34,22.90
2015,06,15,16,35,22.80
2015,06,15,16,36,22.70
2015,06,15,16,37,22.70
2015,06,15,16,38,22.60
2015,06,15,16,39,22.60
2015,06,15,16,40,22.60
2015,06,15,16,41,22.50
2015,06,15,16,42,22.50
2015,06,15,16,43,22.40
2015,06,15,16,44,22.40
2015,06,15,16,45,22.40
2015,06,15,16,46,22.40
2015,06,15,16,47,22.40
2015,06,15,16,48,22.30
2015,06,15,16,49,22.30
2015,06,15,16,50,22.30
2015,06,15,16,51,22.20
2015,06,15,16,52,22.20
2015,06,15,16,53,22.20
2015,06,15,16,54,22.20
2015,06,15,16,55,22.20
2015,06,15,16,56,22.10
2015,06,15,16,57,22.10
2015,06,15,16,58,22.10
2015,06,15,16,59,22.20
2015,06,15,17,00,22.20
2015,06,15,17,01,22.20
2015,06,15,17,02,22.20
2015,06,15,17,03,22.20
2015,06,15,17,04,22.20
2015,06,15,17,05,22.20
2015,06,15,17,06,22.20
2015,06,15,17,07,22.20
2015,06,15,17,08,22.20
2015,06,15,17,09,22.30
2015,06,15,17,10,22.30
2015,06,15,17,11,22.30
2015,06,15,17,12,22.30
2015,06,15,17,13,22.30
2015,06,15,17,14,22.30
2015,06,15,17,15,22.20
2015,06,15,17,16,22.20
2015,06,15,17,17,22.20
2015,06,15,17,18,22.10
2015,06,15,17,19,22.10
2015,06,15,17,20,22.00
2015,06,15,17,21,22.00
2015,06,15,17,22,22.00
2015,06,15,17,23,21.90
2015,06,15,17,24,21.90
2015,06,15,17,25,22.00
2015,06,15,17,26,22.00
2015,06,15,17,27,22.00
2015,06,15,17,28,22.10
2015,06,15,17,29,22.10
2015,06,15,17,30,22.10
2015,06,15,17,31,22.10
2015,06,15,17,32,22.10
2015,06,15,17,33,22.10
2015,06,15,17,34,22.10
2015,06,15,17,35,22.20
2015,06,15,17,36,22.20
2015,06,15,17,37,22.20
2015,06,15,17,38,22.20
2015,06,15,17,39,22.20
2015,06,15,17,40,22.10
2015,06,15,17,41,22.10
2015,06,15,17,42,22.00
2015,06,15,17,43,22.00